NKS232 KATL-TNCM

Flight info

Callsign NKS232
Flight time N/A
Altitude 39000
Route VRSTY3 NOKIE DCT YANTI Q89 MANLE Y185 RENAH Y355 SLUGO
Aircraft A20N/M-SDE2E3FGHIRWXY/LB1

Departure

Time 2026-05-04 02:09
Airport Hartsfield Jackson Atlanta International Airport (KATL)

Arrival

Time N/A
Airport Princess Juliana International Airport (TNCM)
Time Latitude Longitude Altitude Speed Heading
2026-05-04 01:22 33.63744 -84.42642 1024 ft 0 kts 91°
2026-05-04 01:57 33.63743 -84.42657 1024 ft 2 kts 88°
2026-05-04 01:57 33.63743 -84.42676 1024 ft 2 kts 91°
2026-05-04 01:58 33.63743 -84.42693 1024 ft 2 kts 90°
2026-05-04 01:58 33.63746 -84.42712 1024 ft 2 kts 121°
2026-05-04 01:58 33.63756 -84.42725 1024 ft 2 kts 147°
2026-05-04 01:58 33.63770 -84.42732 1024 ft 1 kts 174°
2026-05-04 01:59 33.63776 -84.42732 1024 ft 0 kts 183°
2026-05-04 01:59 33.63771 -84.42731 1024 ft 0 kts 173°
2026-05-04 01:59 33.63766 -84.42731 1024 ft 0 kts 175°
2026-05-04 01:59 33.63767 -84.42731 1024 ft 0 kts 182°
2026-05-04 02:00 33.63775 -84.42731 1024 ft 1 kts 195°
2026-05-04 02:00 33.63782 -84.42728 1024 ft 0 kts 184°
2026-05-04 02:02 33.63779 -84.42729 1024 ft 1 kts 184°
2026-05-04 02:02 33.63767 -84.42730 1024 ft 2 kts 184°
2026-05-04 02:02 33.63746 -84.42731 1024 ft 3 kts 184°
2026-05-04 02:03 33.63717 -84.42734 1024 ft 5 kts 183°
2026-05-04 02:03 33.63672 -84.42728 1024 ft 7 kts 145°
2026-05-04 02:03 33.63656 -84.42650 1024 ft 11 kts 91°
2026-05-04 02:03 33.63656 -84.42538 1024 ft 14 kts 90°
2026-05-04 02:04 33.63655 -84.42400 1024 ft 17 kts 90°
2026-05-04 02:04 33.63655 -84.42247 1024 ft 19 kts 90°
2026-05-04 02:04 33.63654 -84.42065 1021 ft 23 kts 90°
2026-05-04 02:04 33.63655 -84.41860 1021 ft 25 kts 90°
2026-05-04 02:05 33.63656 -84.41647 1022 ft 26 kts 91°
2026-05-04 02:05 33.63655 -84.41425 1018 ft 27 kts 89°
2026-05-04 02:05 33.63657 -84.41194 1012 ft 27 kts 89°
2026-05-04 02:05 33.63658 -84.41018 1008 ft 14 kts 91°
2026-05-04 02:06 33.63655 -84.40932 1006 ft 7 kts 107°
2026-05-04 02:06 33.63603 -84.40910 1006 ft 9 kts 179°
2026-05-04 02:06 33.63535 -84.40909 1006 ft 10 kts 180°
2026-05-04 02:06 33.63483 -84.40910 1006 ft 4 kts 193°
2026-05-04 02:07 33.63469 -84.40942 1006 ft 4 kts 267°
2026-05-04 02:07 33.63469 -84.40962 1006 ft 0 kts 270°
2026-05-04 02:07 33.63469 -84.40963 1006 ft 0 kts 270°
2026-05-04 02:08 33.63469 -84.41140 1007 ft 55 kts 270°
2026-05-04 02:08 33.63469 -84.41878 1011 ft 119 kts 270°
2026-05-04 02:08 33.63470 -84.43105 1018 ft 171 kts 271°
2026-05-04 02:08 33.63472 -84.44553 1554 ft 174 kts 271°
2026-05-04 02:09 33.63471 -84.46021 2185 ft 179 kts 271°
2026-05-04 02:09 33.63470 -84.47556 2648 ft 195 kts 271°
2026-05-04 02:09 33.63469 -84.49264 3096 ft 211 kts 271°
2026-05-04 02:09 33.63470 -84.51122 3425 ft 235 kts 271°
2026-05-04 02:10 33.63470 -84.53155 3897 ft 253 kts 271°
2026-05-04 02:10 33.63469 -84.55321 4520 ft 264 kts 271°
2026-05-04 02:10 33.63466 -84.57491 5336 ft 267 kts 271°
2026-05-04 02:10 33.63450 -84.59724 6168 ft 269 kts 267°
2026-05-04 02:11 33.62913 -84.61870 6911 ft 277 kts 237°
2026-05-04 02:11 33.61449 -84.63358 7673 ft 285 kts 204°
2026-05-04 02:11 33.59522 -84.63769 8400 ft 291 kts 176°
2026-05-04 02:11 33.57561 -84.63061 9092 ft 298 kts 148°
2026-05-04 02:12 33.56009 -84.61448 9813 ft 301 kts 134°
2026-05-04 02:12 33.54498 -84.59630 10473 ft 308 kts 135°
2026-05-04 02:12 33.52930 -84.57791 10885 ft 325 kts 135°
2026-05-04 02:12 33.51279 -84.55893 11474 ft 333 kts 136°
2026-05-04 02:13 33.49593 -84.53977 12185 ft 337 kts 136°
2026-05-04 02:13 33.47873 -84.52034 12897 ft 340 kts 136°
2026-05-04 02:13 33.46161 -84.50105 13577 ft 344 kts 137°
2026-05-04 02:13 33.44402 -84.48128 14248 ft 348 kts 137°
2026-05-04 02:14 33.42628 -84.46137 14917 ft 351 kts 137°
2026-05-04 02:14 33.40819 -84.44110 15593 ft 355 kts 137°
2026-05-04 02:14 33.39027 -84.42102 16224 ft 358 kts 137°
2026-05-04 02:14 33.37200 -84.40058 16853 ft 361 kts 138°
2026-05-04 02:15 33.35366 -84.38007 17447 ft 365 kts 138°
2026-05-04 02:15 33.33508 -84.35929 18044 ft 368 kts 138°
2026-05-04 02:15 33.31638 -84.33840 18637 ft 371 kts 138°
2026-05-04 02:15 33.29736 -84.31718 19215 ft 374 kts 138°
2026-05-04 02:16 33.27823 -84.29585 19741 ft 378 kts 138°
2026-05-04 02:16 33.25894 -84.27438 20303 ft 381 kts 138°
2026-05-04 02:16 33.23941 -84.25263 20837 ft 384 kts 138°
2026-05-04 02:16 33.21993 -84.23095 21369 ft 388 kts 138°
2026-05-04 02:17 33.20008 -84.20884 21904 ft 391 kts 138°
2026-05-04 02:17 33.18019 -84.18672 22411 ft 395 kts 138°
2026-05-04 02:17 33.15998 -84.16426 22913 ft 399 kts 138°
2026-05-04 02:17 33.13956 -84.14159 23438 ft 402 kts 138°
2026-05-04 02:18 33.11900 -84.11875 23927 ft 405 kts 138°
2026-05-04 02:18 33.09831 -84.09581 24435 ft 408 kts 138°
2026-05-04 02:18 33.07758 -84.07282 24936 ft 410 kts 138°
2026-05-04 02:18 33.05636 -84.04932 25417 ft 413 kts 137°
2026-05-04 02:19 33.03532 -84.02604 25894 ft 415 kts 137°
2026-05-04 02:19 33.01397 -84.00242 26353 ft 418 kts 137°
2026-05-04 02:19 32.99269 -83.97890 26767 ft 422 kts 137°
2026-05-04 02:19 32.97107 -83.95499 27180 ft 425 kts 137°
2026-05-04 02:20 32.94937 -83.93102 27599 ft 427 kts 138°
2026-05-04 02:20 32.92731 -83.90664 28017 ft 430 kts 138°
2026-05-04 02:20 32.90536 -83.88245 28408 ft 432 kts 138°
2026-05-04 02:20 32.88298 -83.85780 28782 ft 435 kts 138°
2026-05-04 02:21 32.86084 -83.83343 29116 ft 437 kts 138°
2026-05-04 02:21 32.83839 -83.80874 29441 ft 440 kts 138°
2026-05-04 02:21 32.81554 -83.78361 29757 ft 442 kts 138°
2026-05-04 02:21 32.79315 -83.75899 30058 ft 445 kts 139°
2026-05-04 02:22 32.77036 -83.73395 30357 ft 446 kts 139°
2026-05-04 02:22 32.74727 -83.70861 30653 ft 448 kts 139°
2026-05-04 02:22 32.72452 -83.68365 31135 ft 443 kts 139°
2026-05-04 02:22 32.70214 -83.65926 31599 ft 439 kts 141°
2026-05-04 02:23 32.67864 -83.63597 31855 ft 439 kts 145°
2026-05-04 02:23 32.65410 -83.61402 32064 ft 441 kts 147°
2026-05-04 02:23 32.62936 -83.59226 32311 ft 442 kts 147°
2026-05-04 02:23 32.60455 -83.57052 32543 ft 444 kts 147°
2026-05-04 02:24 32.57979 -83.54876 32745 ft 446 kts 147°
2026-05-04 02:24 32.55478 -83.52675 32994 ft 447 kts 147°
2026-05-04 02:24 32.52949 -83.50449 33201 ft 448 kts 147°
2026-05-04 02:24 32.50450 -83.48247 33403 ft 450 kts 147°
2026-05-04 02:25 32.47936 -83.46034 33647 ft 451 kts 148°
2026-05-04 02:25 32.45396 -83.43800 33873 ft 451 kts 148°
2026-05-04 02:25 32.42882 -83.41592 34069 ft 452 kts 148°
2026-05-04 02:25 32.40341 -83.39362 34254 ft 453 kts 148°
2026-05-04 02:26 32.37823 -83.37153 34444 ft 454 kts 148°
2026-05-04 02:26 32.35268 -83.34914 34578 ft 456 kts 149°
2026-05-04 02:26 32.32688 -83.32649 34771 ft 457 kts 149°
2026-05-04 02:26 32.30129 -83.30407 34976 ft 456 kts 150°
2026-05-04 02:27 32.27570 -83.28168 35096 ft 458 kts 150°
2026-05-04 02:27 32.25010 -83.25933 35096 ft 457 kts 150°
2026-05-04 02:27 32.19894 -83.21465 35106 ft 456 kts 150°
2026-05-04 02:28 32.14783 -83.17006 35099 ft 455 kts 150°
2026-05-04 02:28 32.09687 -83.12565 35106 ft 454 kts 150°
2026-05-04 02:29 32.04922 -83.08421 35111 ft 453 kts 150°
2026-05-04 02:29 31.99794 -83.03966 35098 ft 452 kts 150°
2026-05-04 02:30 31.94712 -82.99559 35246 ft 454 kts 150°
2026-05-04 02:30 31.92164 -82.97349 35424 ft 454 kts 150°
2026-05-04 02:30 31.89608 -82.95134 35560 ft 455 kts 151°
2026-05-04 02:31 31.87030 -82.92903 35681 ft 457 kts 151°
2026-05-04 02:31 31.84439 -82.90661 35822 ft 458 kts 151°
2026-05-04 02:31 31.81861 -82.88432 35929 ft 459 kts 151°
2026-05-04 02:31 31.79306 -82.86214 36074 ft 461 kts 150°
2026-05-04 02:32 31.76764 -82.83852 36212 ft 464 kts 148°
2026-05-04 02:32 31.74229 -82.81448 36289 ft 466 kts 149°
2026-05-04 02:32 31.71703 -82.79048 36410 ft 467 kts 148°
2026-05-04 02:32 31.69184 -82.76654 36522 ft 468 kts 149°
2026-05-04 02:33 31.66623 -82.74220 36639 ft 468 kts 148°
2026-05-04 02:33 31.64098 -82.71825 36759 ft 468 kts 148°
2026-05-04 02:33 31.61589 -82.69446 36885 ft 469 kts 149°
2026-05-04 02:33 31.59046 -82.67037 36993 ft 469 kts 149°
2026-05-04 02:34 31.56499 -82.64624 37108 ft 469 kts 149°
2026-05-04 02:34 31.53950 -82.62212 37114 ft 469 kts 149°
2026-05-04 02:34 31.48859 -82.57402 37116 ft 471 kts 149°
2026-05-04 02:35 31.43691 -82.52531 37116 ft 477 kts 149°
2026-05-04 02:35 31.38527 -82.47664 37114 ft 478 kts 149°
2026-05-04 02:36 31.33312 -82.42760 37128 ft 480 kts 149°
2026-05-04 02:36 31.28105 -82.37869 37124 ft 479 kts 149°
2026-05-04 02:37 31.22907 -82.32989 37129 ft 478 kts 150°
2026-05-04 02:37 31.17715 -82.28128 37123 ft 478 kts 150°
2026-05-04 02:38 31.12517 -82.23266 37122 ft 479 kts 150°
2026-05-04 02:38 31.07295 -82.18391 37121 ft 479 kts 150°
2026-05-04 02:39 31.02058 -82.13505 37118 ft 480 kts 151°
2026-05-04 02:39 30.96867 -82.08667 37114 ft 477 kts 151°
2026-05-04 02:40 30.91693 -82.03860 37119 ft 479 kts 151°
2026-05-04 02:40 30.86460 -81.99003 37090 ft 479 kts 151°
2026-05-04 02:41 30.81203 -81.94126 37070 ft 479 kts 151°
2026-05-04 02:41 30.75960 -81.89269 37095 ft 480 kts 151°
2026-05-04 02:42 30.70729 -81.84428 37143 ft 477 kts 151°
2026-05-04 02:42 30.65462 -81.79562 37120 ft 476 kts 152°
2026-05-04 02:43 30.60070 -81.74840 37120 ft 472 kts 155°
2026-05-04 02:43 30.54597 -81.70428 37116 ft 472 kts 155°
2026-05-04 02:44 30.49136 -81.66032 37114 ft 471 kts 155°
2026-05-04 02:44 30.43656 -81.61623 37119 ft 473 kts 155°
2026-05-04 02:45 30.38178 -81.57217 37122 ft 472 kts 155°
2026-05-04 02:45 30.32718 -81.52834 37115 ft 473 kts 156°
2026-05-04 02:46 30.27236 -81.48436 37111 ft 472 kts 156°
2026-05-04 02:46 30.21748 -81.44037 37113 ft 470 kts 156°
2026-05-04 02:47 30.16312 -81.39690 37112 ft 471 kts 156°
2026-05-04 02:47 30.10854 -81.35335 37114 ft 469 kts 156°
2026-05-04 02:48 30.05433 -81.31016 37110 ft 469 kts 157°
2026-05-04 02:48 30.00032 -81.26711 37112 ft 467 kts 158°
2026-05-04 02:49 29.94640 -81.22424 37096 ft 467 kts 158°
2026-05-04 02:49 29.89287 -81.18173 37110 ft 465 kts 158°
2026-05-04 02:50 29.83815 -81.13992 37099 ft 460 kts 162°
2026-05-04 02:50 29.78056 -81.10503 37091 ft 445 kts 169°
2026-05-04 02:51 29.72206 -81.07691 37083 ft 441 kts 171°
2026-05-04 02:51 29.66452 -81.04979 37093 ft 442 kts 171°
2026-05-04 02:52 29.60699 -81.02264 37092 ft 441 kts 171°
2026-05-04 02:52 29.54989 -80.99573 37088 ft 443 kts 171°
2026-05-04 02:53 29.49258 -80.96870 37085 ft 441 kts 172°
2026-05-04 02:53 29.43550 -80.94179 37090 ft 438 kts 172°
2026-05-04 02:54 29.37835 -80.91490 37080 ft 438 kts 172°
2026-05-04 02:54 29.32136 -80.88820 37091 ft 439 kts 172°
2026-05-04 02:55 29.23512 -80.84776 37086 ft 437 kts 173°
2026-05-04 02:56 29.17759 -80.82087 37084 ft 440 kts 173°
2026-05-04 02:56 29.12003 -80.79396 37089 ft 442 kts 173°
2026-05-04 02:57 29.06249 -80.76704 37080 ft 439 kts 173°
2026-05-04 02:57 29.00539 -80.74039 37075 ft 437 kts 173°
2026-05-04 02:58 28.94854 -80.71369 37080 ft 440 kts 171°
2026-05-04 02:58 28.89314 -80.67808 37079 ft 464 kts 160°
2026-05-04 02:58 28.86636 -80.65466 37077 ft 478 kts 154°
2026-05-04 02:59 28.84159 -80.62806 37076 ft 489 kts 147°
2026-05-04 02:59 28.81895 -80.59824 37073 ft 500 kts 141°
2026-05-04 02:59 28.79831 -80.56519 37075 ft 511 kts 136°
2026-05-04 03:00 28.75885 -80.49609 37072 ft 515 kts 136°
2026-05-04 03:00 28.71956 -80.42780 37068 ft 513 kts 136°
2026-05-04 03:01 28.67870 -80.35838 37072 ft 513 kts 136°
2026-05-04 03:01 28.63750 -80.28909 37065 ft 510 kts 137°
2026-05-04 03:02 28.59617 -80.21967 37065 ft 509 kts 137°
2026-05-04 03:02 28.55519 -80.15083 37069 ft 511 kts 136°
2026-05-04 03:03 28.51490 -80.08321 37073 ft 510 kts 136°
2026-05-04 03:03 28.47484 -80.01606 37074 ft 510 kts 136°
2026-05-04 03:04 28.43457 -79.94874 37075 ft 512 kts 136°
2026-05-04 03:04 28.39392 -79.88076 37073 ft 509 kts 136°
2026-05-04 03:05 28.35326 -79.81302 37077 ft 510 kts 136°
2026-05-04 03:05 28.31240 -79.74497 37076 ft 510 kts 136°
2026-05-04 03:06 28.27169 -79.67731 37072 ft 510 kts 136°
2026-05-04 03:06 28.23163 -79.61075 37070 ft 507 kts 136°
2026-05-04 03:07 28.19025 -79.54219 37070 ft 509 kts 136°
2026-05-04 03:07 28.14917 -79.47420 37068 ft 507 kts 135°
2026-05-04 03:08 28.10817 -79.40651 37070 ft 507 kts 136°
2026-05-04 03:08 28.06734 -79.33917 37066 ft 509 kts 136°
2026-05-04 03:09 28.02630 -79.27151 37063 ft 508 kts 136°
2026-05-04 03:09 27.98455 -79.20287 37066 ft 509 kts 136°
2026-05-04 03:10 27.94319 -79.13490 37061 ft 507 kts 135°
2026-05-04 03:10 27.90190 -79.06728 37062 ft 507 kts 136°
2026-05-04 03:11 27.86098 -79.00040 37060 ft 507 kts 135°
2026-05-04 03:11 27.82089 -78.93493 37054 ft 507 kts 136°
2026-05-04 03:12 27.78018 -78.86858 37048 ft 510 kts 135°
2026-05-04 03:12 27.73947 -78.80217 37043 ft 507 kts 135°
2026-05-04 03:13 27.69870 -78.73579 37035 ft 509 kts 135°
2026-05-04 03:13 27.65827 -78.67012 37036 ft 509 kts 135°
2026-05-04 03:14 27.61808 -78.60365 37030 ft 513 kts 133°
2026-05-04 03:14 27.57889 -78.53603 37025 ft 509 kts 133°
2026-05-04 03:15 27.53946 -78.46816 37029 ft 509 kts 133°
2026-05-04 03:15 27.50028 -78.40119 37018 ft 507 kts 133°
2026-05-04 03:16 27.46096 -78.33408 37017 ft 508 kts 133°
2026-05-04 03:16 27.42198 -78.26764 37024 ft 506 kts 133°
2026-05-04 03:17 27.38271 -78.20080 37026 ft 507 kts 133°
2026-05-04 03:17 27.34384 -78.13476 37028 ft 506 kts 133°
2026-05-04 03:18 27.30461 -78.06832 37017 ft 505 kts 133°
2026-05-04 03:18 27.26567 -78.00237 37021 ft 504 kts 133°
2026-05-04 03:19 27.22707 -77.93713 37012 ft 503 kts 133°
2026-05-04 03:19 27.18801 -77.87118 37015 ft 502 kts 132°
2026-05-04 03:20 27.14894 -77.80523 37011 ft 503 kts 133°
2026-05-04 03:20 27.10982 -77.73935 37015 ft 501 kts 132°
2026-05-04 03:21 27.07082 -77.67374 37004 ft 502 kts 132°
2026-05-04 03:21 27.03195 -77.60849 37006 ft 502 kts 132°
2026-05-04 03:22 26.99294 -77.54271 37005 ft 502 kts 131°
2026-05-04 03:22 26.95466 -77.47699 37004 ft 502 kts 131°
2026-05-04 03:23 26.91622 -77.41099 36998 ft 500 kts 131°
2026-05-04 03:23 26.87795 -77.34541 37002 ft 499 kts 131°
2026-05-04 03:24 26.83958 -77.27985 36995 ft 500 kts 131°
2026-05-04 03:24 26.80116 -77.21433 37001 ft 503 kts 131°
2026-05-04 03:25 26.76276 -77.14888 37009 ft 504 kts 131°
2026-05-04 03:25 26.72435 -77.08347 37016 ft 502 kts 131°
2026-05-04 03:26 26.68520 -77.01695 37017 ft 501 kts 131°
2026-05-04 03:26 26.64651 -76.95125 37016 ft 501 kts 131°
2026-05-04 03:27 26.60774 -76.88566 37016 ft 502 kts 131°
2026-05-04 03:27 26.56908 -76.82022 37012 ft 503 kts 131°
2026-05-04 03:28 26.53048 -76.75498 37014 ft 504 kts 131°
2026-05-04 03:28 26.49142 -76.68909 37017 ft 504 kts 131°
2026-05-04 03:29 26.45251 -76.62353 37022 ft 505 kts 131°
2026-05-04 03:29 26.41340 -76.55777 37014 ft 506 kts 131°
2026-05-04 03:30 26.37446 -76.49232 37011 ft 505 kts 130°
2026-05-04 03:30 26.33519 -76.42650 37010 ft 506 kts 130°
2026-05-04 03:31 26.29576 -76.36042 37002 ft 506 kts 131°
2026-05-04 03:31 26.25671 -76.29512 37001 ft 506 kts 131°
2026-05-04 03:32 26.21726 -76.22923 36997 ft 506 kts 131°